Weather in Letterkenny

Ireland     54°57′03″N   7°43′54″W
temp.,
°C
wind,
m/s
gust,
m/s
humid.,
%
clouds,
%
prec.,
mm/h
press.,
hPa
HPBL,
m
18 january, tue
tue1800:000sse229353 0.0 103425
03:000sse2397100 0.0 103256
06:00+3s3996100 0.0 1031337
09:00+3s3897100 0.0 1030245
12:00+5s31096100 0.9 1029402
15:00+7s31195100 0.8 1026557
18:00+7ssw41092100 0.8 1025478
21:00+8sw61289100 0.1 1024985
19 january, wed
wed1900:00+9wsw81586100 0.4 10231343
03:00+7nw7138743 0.5 10241121
06:00+5nw61279100 0.6 10271011
09:00+6nw6126951 0.1 1029976
12:00+7nw7126877 0.2 10311425
15:00+7nw7126743 0.1 10321451
18:00+6nw6127395 0.1 1034981
21:00
20 january, thu
thu2000:00+5nnw4107550 0.2 1037343
03:00+3nw238130 0.0 103944
06:00
09:00+5nw117797 0.0 104013
12:00+7nw1567100 0.0 1041599
15:00+7nw356978 0.0 1041558
18:00+5w2375100 0.0 104173
21:00+4wsw118552 0.0 104211
21 january, fri
fri2100:00+5sw118197 0.0 104131
03:00+3sw228684 0.0 104114
06:00+3wsw228899 0.0 104014
09:00+3sw2290100 0.0 104020
12:00+7wsw267442 0.0 1040508
15:00+7wsw367829 0.0 1039669
18:00+3ssw229327 0.0 103937
21:00+2ssw33949 0.0 103963
22 january, sat
sat2200:00+2ssw2494100 0.0 103874
03:00+4s2490100 0.0 1037145
06:00+4ssw2493100 0.0 1037101
09:00+6ssw378996 0.0 1037263
12:00+8ssw388153 0.0 1037443
15:00+8sw3780100 0.0 1036490
18:00+7ssw2688100 0.0 1036206
21:00+6ssw268726 0.0 1036162